Home > Weather > Caversham > Past weeks

Flag for United Kingdom Past Weather in Caversham, England, United Kingdom — Yesterday and Last 2 Weeks

Now
69 °F

Sprinkles. Overcast.


Feels Like: 69 °F
Forecast: 57 / 72 °F
Wind: 10 mph from Northeast

Location: Benson

Current Time: Aug 27, 2016 at 6:10:45 PM

Latest Report: Aug 27, 2016 at 5:00 PM


Visibility: 16 mi

Pressure: 29.90 "Hg

Humidity: 77%

Dew Point: 61 °F

Location of CavershamLocation

Past Weather in Caversham — Graph

°F

Caversham Temperature Yesterday

Maximum temperature yesterday: 75 °F (at 4:00 PM)
Minimum temperature yesterday: 58 °F (at 9:00 PM)
Average temperature yesterday: 67 °F

High & Low Weather Summary for the Past Weeks

 TemperatureHumidityPressure
High85 °F (Aug 23, 4:00 PM)100% (Aug 25, 11:00 PM)30.31 "Hg (Aug 25, 11:00 PM)
Low44 °F (Aug 15, 6:00 AM)35% (Aug 23, 5:00 PM)29.63 "Hg (Aug 19, 6:00 PM)
Average65 °F74%30.03 "Hg
* Reported Aug 12 4:00 PM — Aug 27 4:00 PM, Caversham, Weather by CustomWeather, © 2016

Note: Actual official high and low records may vary slightly from our data, if they occured in-between our weather recording intervals... More about our weather records

Advertising

Caversham Weather History for the Previous 24 Hours

Scroll right to see more
 ConditionsComfort  
Time TempWeatherWind HumidityBarometerVisibility
4:00 PM
Sat, Aug 27
69 °FThunderstorms. Overcast.10 mph75%29.92 "Hg16 mi
3:00 PM74 °FOvercast.13 mph63%29.91 "Hg16 mi
2:00 PM74 °FOvercast.9 mph61%29.95 "Hg16 mi
1:00 PM72 °FThunderstorms. Overcast.9 mph64%29.98 "Hg16 mi
12:00 PM71 °FLight rain. Overcast.6 mph65%30.01 "Hg16 mi
11:00 AM72 °FMild.10 mph62%30.03 "Hg17 mi
10:00 AM65 °FMild.6 mph82%30.05 "Hg7 mi
9:00 AM60 °FCool.6 mph86%30.06 "Hg8 mi
8:00 AM57 °FCool.3 mph87%30.07 "Hg11 mi
7:00 AM54 °FCool.2 mph90%30.08 "Hg12 mi
6:00 AM52 °FCool.3 mph93%30.08 "Hg12 mi
5:00 AM51 °FCool.2 mph96%30.10 "Hg11 mi
4:00 AM51 °FCool.2 mph95%30.11 "Hg12 mi
3:00 AM50 °FCool.1 mph95%30.12 "Hg16 mi
2:00 AM50 °FCool.1 mph94%30.13 "Hg18 mi
1:00 AM50 °FCool.1 mph92%30.14 "Hg19 mi
12:00 AM51 °FCool.2 mph90%30.14 "Hg22 mi
9:00 PM
Fri, Aug 26
58 °FCool.2 mph75%30.12 "Hg18 mi
8:00 PM69 °FMild.3 mph46%30.10 "Hg22 mi
7:00 PM72 °FMild.8 mph37%30.08 "Hg25 mi
6:00 PM74 °FMild.8 mph40%30.08 "Hg22 mi
Weather by CustomWeather, © 2016

See weather overviewHow to use our weather pages